sat.trackr.live / text

‹ back to catalog

COSMIC

NORAD 66658 · 2025-274J

PAYLOAD ACTIVE UNKNOWN

§ Identity

Operator
Country
SKOR
Launch date
2025-11-26
Launch site
NSC
Launch vehicle
Mass (kg)
RCS (m²)

External: N2YO · Heavens-Above · Gunter

§ Orbital elements

Epoch: 2026-09-20T20:46:58.773792Z

Period
96.33 min
Inclination
97.7470°
Eccentricity
0.0013833
Mean motion
14.94798620 rev/d
Perigee alt
573.4 km
Apogee alt
592.6 km
Semi-major
6,961.1 km
B*
1.9444e-4
RAAN
192.0650°
Arg perigee
60.7891°
Mean anomaly
299.4711°
Rev number
4,452

§ Raw data

COSMIC1 66658U 25274J   26263.86595803  .00002061  00000+0  19444-3 0  99972 66658  97.7470 192.0650 0013833  60.7891 299.4711 14.94798620 44527

JSON: /api/v1/satellites/66658 · /tle

For live sub-satellite position, see the globe view (requires WebGL).

§ Visibility from observer

Set your observer location to see the next 7 days of passes ≥ 10°. The values pass through the URL so the page stays shareable.

No JS? Fill the form by hand. The geolocation button needs JavaScript.